Starlink 4035

operational
NORAD ID: 52690 Int'l Des: 2022-053 Owner: SPXS Country: US Constellation: starlink
LEOCIRCULAR

Über Starlink 4035

Beschreibung wird geladen...

Live-Position

3D-Globus wird geladen...

Nächste Überflüge

Höhenverlauf

Altitude vs Time

uPlot chart will show altitude changes over time

Zweizeiliger Elementsatz

1 52690U 22053AL 26061.04879777 -.00001675 00000-0 -87203-4 0 9993
2 52690 53.2196 178.4228 0001107 70.8912 289.2200 15.08821900209961
Epoch: 2. März 2026 • Age: 25 hours

Aktueller Status

Höhe 541.3 km
Geschwindigkeit 7.60 km/s
Subsatellitenpunkt 32.58°N, 23.41°E
Startdatum 18. Mai 2022
Alter 3.7 years
Typ internet

Technische Details

Klassifizierung Payload
Masse 297.00 kg
Trockenmasse 275.00 kg
Gesamtmasse 297.00 kg
Länge 0.20 m
Durchmesser 2.80 m
Spannweite 9.00 m
Form Box + pan
Hersteller SPXS
Bus-Typ Starlink
Phasenstatus In Orbit
Besitzer/Staat SPXS/US

Große Konstellationen

Loading constellations...